Location: Clyde
(45.1830°S, 169.3170°E)
Time: 17:11:32
(UTC+12:00)

CENTAUR R/B - Pass Details

Date: 14 May 2021
Orbit: 742 x 1446 km, 63.4° (Epoch: 14 June)

Event Time Altitude Azimuth Distance (km) Brightness Sun altitude
Rises 19:49:48 0° 264° (W) 4,170 7.1 -25.5°
Reaches altitude 10° 19:53:40 10° 248° (WSW) 3,074 6.0 -26.2°
Maximum altitude 19:58:48 20° 203° (SSW) 2,231 4.6 -27.1°
Enters shadow 20:02:05 14° 167° (SSE) 2,458 4.5 -27.6°
